(182) Elsa
ephemeris date magn radius delta ra dec elong phase
Opposition15 Jul 202612.22.608 AU1.592 AU19h41m-21°44'179.1°0.4°
Today25 Aug 202613.12.535 AU1.723 AU19h09m-23°16'134.3°16.6°
(182) Elsa - 2026-08-25
astro.vanbuitenen.nl


 
-1 year
-1 month
-1 day
Now
+1 day
+1 month
+1 year

The interactive orbit chart above shows the body's path through the solar system and its position at the given date. Green and blue lines are shown perpendicular to the ecliptic plane: Green if the path is above the ecliptic plane, blue if it is below. (Left-click and drag to rotate the view; Right-click and drag to move the view; Use scroll wheel to zoom in our out.)

The orbital elements of Elsa are:

            e (Eccentricity)                : 0.1863813
            a (Semimajor axis)              : 2.4163026
            i (Inclination)                 : 2.00559
            Ω (Longitude of ascending node) : 107.16319
            ω (Argument of perihelion)      : 310.58148
            M (Mean anomaly)                : 244.86841
            Epoch                           : 2026 Jun 09

            L (Longitude of perihelion)     : 57.76202
            B (Latitude of perihelion)      : -1.52308
            P (Orbital period in years)     : 3.76            
        

The light curve chart below shows the estimated development of the minor planet's magnitude.


The all-sky chart below shows the path of the minor planet over the same period as the light curve. The current position is marked yellow.





The following chart shows the path of the minor planet in the next few days. The field of view is optimized for (~10x50) binoculars and finderscopes.




Ephemerides:
Date       Time       RA (2000)    DEC (2000)    delta   radius  elong  phase   PA    magn
2026-08-25 00:00 UT   19 09 01.3   -23 16 22     1.723    2.535  134.3   16.6    82   13.1 
2026-08-25 01:06 UT   19 09 00.4   -23 16 25     1.723    2.535  134.3   16.6    82   13.1 
2026-08-26 00:00 UT   19 08 42.2   -23 17 21     1.730    2.533  133.3   16.9    83   13.2 
2026-08-27 00:00 UT   19 08 25.0   -23 18 16     1.738    2.531  132.3   17.2    83   13.2 
2026-08-28 00:00 UT   19 08 09.6   -23 19 07     1.746    2.529  131.2   17.5    83   13.2 
2026-08-29 00:00 UT   19 07 56.0   -23 19 54     1.754    2.527  130.2   17.8    83   13.2 
2026-08-30 00:00 UT   19 07 44.3   -23 20 38     1.762    2.525  129.2   18.0    83   13.2 
2026-08-31 00:00 UT   19 07 34.5   -23 21 19     1.771    2.523  128.2   18.3    83   13.3 
2026-09-01 00:00 UT   19 07 26.5   -23 21 56     1.779    2.521  127.2   18.6    83   13.3 
2026-09-02 00:00 UT   19 07 20.4   -23 22 29     1.788    2.519  126.2   18.9    83   13.3 
2026-09-03 00:00 UT   19 07 16.2   -23 22 59     1.797    2.517  125.2   19.1    83   13.3 
2026-09-04 00:00 UT   19 07 13.8   -23 23 25     1.806    2.515  124.3   19.4    83   13.3 
2026-09-05 00:00 UT   19 07 13.3   -23 23 49     1.815    2.514  123.3   19.6    83   13.3 
2026-09-06 00:00 UT   19 07 14.6   -23 24 08     1.824    2.512  122.3   19.8    83   13.4 
2026-09-07 00:00 UT   19 07 17.8   -23 24 24     1.833    2.510  121.4   20.1    83   13.4 
2026-09-08 00:00 UT   19 07 22.8   -23 24 37     1.842    2.508  120.4   20.3    83   13.4 
2026-09-09 00:00 UT   19 07 29.6   -23 24 47     1.852    2.506  119.5   20.5    83   13.4 
2026-09-10 00:00 UT   19 07 38.3   -23 24 53     1.861    2.504  118.5   20.7    83   13.4 
2026-09-11 00:00 UT   19 07 48.8   -23 24 55     1.871    2.502  117.6   20.9    83   13.4 
2026-09-12 00:00 UT   19 08 01.2   -23 24 55     1.881    2.500  116.7   21.1    83   13.5 
2026-09-13 00:00 UT   19 08 15.3   -23 24 51     1.890    2.498  115.8   21.3    83   13.5 
2026-09-14 00:00 UT   19 08 31.3   -23 24 43     1.900    2.496  114.8   21.5    83   13.5 
2026-09-15 00:00 UT   19 08 49.0   -23 24 32     1.910    2.494  113.9   21.6    83   13.5 
2026-09-16 00:00 UT   19 09 08.4   -23 24 18     1.920    2.492  113.0   21.8    83   13.5 
2026-09-17 00:00 UT   19 09 29.6   -23 24 00     1.931    2.490  112.1   22.0    83   13.5 
2026-09-18 00:00 UT   19 09 52.6   -23 23 39     1.941    2.488  111.3   22.1    83   13.5 
2026-09-19 00:00 UT   19 10 17.2   -23 23 14     1.951    2.486  110.4   22.3    83   13.6 
2026-09-20 00:00 UT   19 10 43.5   -23 22 46     1.961    2.484  109.5   22.4    83   13.6 
2026-09-21 00:00 UT   19 11 11.5   -23 22 15     1.972    2.482  108.6   22.5    83   13.6 
2026-09-22 00:00 UT   19 11 41.1   -23 21 40     1.982    2.480  107.8   22.7    83   13.6 
2026-09-23 00:00 UT   19 12 12.4   -23 21 02     1.993    2.478  106.9   22.8    83   13.6 
2026-09-24 00:00 UT   19 12 45.3   -23 20 20     2.003    2.476  106.1   22.9    83   13.6 


    Terminology:
            
    delta:  distance between minor planet and earth in AU
    radius: distance between minor planet and sun in AU
    magn:   magnitude (brightness) estimate    
    ra:     right ascension in hours (24h = 360deg)
    dec:    declination in degrees
    elong:  elongation in degrees (angle sun-earth-minor planet)    
    phase:  phase angle in degrees (angle sun-minor planet-earth)        
    AU:     Astronomical Unit (mean distance between earth and sun: 149597870.7 km
    

Orbital elements provided by the MPC (Minor Planet Center).
Calculations by a modified version of AAPlus, a C# implementation of the AA+ project by PJ Naughter from the algorithms presented in the book "Astronomical Algorithms" by Jean Meeus.
NGC2000 dso catalog and star labels from VizieR as provided by the Strasbourg astronomical Data Center.
Tycho2 catalog from the ESO archive.